Find Starlink 33584

NORAD ID: 62761 Int'l Des: 2025-015 Owner: SPXS Country: US Constellation: starlink operational
LEOCIRCULAR

現在のビュー

3D地球を読み込み中...

About Starlink 33584

Starlink 33584 (NORAD 62761) is a starlink constellation satellite (v2 mini) launched Jan 21, 2025 by SPXS of US. It operates in LEO, CIRCULAR orbit with a mass of 575.00 kg.

Starlink 33584について

説明を読み込み中...

次回通過

Passes for default location (London). Set your location on the main map for personalized predictions.

高度履歴

Loading altitude history...

軌道要素

1 62761U 25015D 26171.40162250 .00000339 00000-0 21189-4 0 9992
2 62761 53.1584 204.1799 0001926 157.6791 202.4296 15.34390261 80227
Epoch: Jun 20, 2026 • Age: 28 hours

現在のステータス

高度 475.0 km
速度 7.63 km/s
衛星直下点 -34.83°S, 54.04°E
打ち上げ日 Jan 21, 2025
運用期間 1.4 years
タイプ internet

技術仕様

分類 Payload
質量 575.00 kg
乾燥質量 530.00 kg
総質量 575.00 kg
長さ 0.30 m
直径 4.10 m
スパン 29.00 m
形状 Box + pan
製造者 SPXS
バスタイプ Starlink V2MO
フェーズステータス In Orbit
所有者/国 SPXS/US

Most Searched